Regional Weather Roundup
Issued by NWS

Home | Current Version | Previous Version | Text Only | Print | Product List | Glossary Off
Versions: 1 2 3 4 5 6 7 8 9 10 11 12 13 14 15 16 17 18 19 20 21 22 23 24 25 26 27

000
ASUS45 KPSR 242010
RWRAZ

ARIZONA HOURLY REGIONAL WEATHER ROUNDUP
NATIONAL WEATHER SERVICE PHOENIX AZ
100 PM MST SUN JUL 24 2016

NOTE: FAIR INDICATES FEW OR NO CLOUDS BELOW 12,000 FEET WITH NO
SIGNIFICANT WEATHER AND/OR OBSTRUCTIONS TO VISIBILITY.

AZZ001>003-036-242100-
NORTHWEST ARIZONA

CITY           SKY/WX    TMP DP  RH WIND       PRES   REMARKS
BULLHEAD CITY  SUNNY    104  55  20 S20G26    29.83F HX 103
KINGMAN        SUNNY     98  50  19 SW22G31   30.05F
$$

AZZ004>008-015-016-018-242100-
NORTH CENTRAL ARIZONA

CITY           SKY/WX    TMP DP  RH WIND       PRES   REMARKS
GRAND CANYON   MOSUNNY   90  44  20 SW16G26   30.27F
WILLIAMS       MOSUNNY   86  48  26 SW10G26   30.37F
PRESCOTT       MOSUNNY   88  53  30 S8        30.18F
FLAGSTAFF      MOSUNNY   82  50  32 S12G17    30.32F
PAYSON         SUNNY     90  52  27 W8G15     30.20F
PAGE           MOSUNNY  101  37  11 MISG      30.02F
$$

AZZ009>014-017-242100-
NORTHEAST ARIZONA

CITY           SKY/WX    TMP DP  RH WIND       PRES   REMARKS
WINSLOW        MOSUNNY   97  44  16 VRB5      30.11F
SAINT JOHNS    SUNNY     94  42  16 N12G18    30.17F
WINDOW ROCK    PTSUNNY   89  43  20 N16       30.26F
SHOW LOW       MOSUNNY   84  45  24 NW6G17    30.26F
$$

AZZ023-242100-
GREATER PHOENIX AREA

CITY           SKY/WX    TMP DP  RH WIND       PRES   REMARKS
PHOENIX        PTSUNNY  101  59  24 W15G21    29.87F HX 101
BUCKEYE        SUNNY    102  57  22 W10       29.89F HX 101
GLENDALE       MOSUNNY  100  59  25 S6G17     29.90F HX 100
LUKE AFB       SUNNY    102  60  25 SW12      29.87F HX 103
DEER VALLEY    SUNNY     99  59  26 W12G20    29.90F
SCOTTSDALE     SUNNY    100  56  23 W8G17     29.92F
MESA-FALCON    MOSUNNY  N/A N/A N/A W12G17    29.89F
MESA-GATEWAY   MOSUNNY   99  59  26 NW10G16   29.91F
CHANDLER       SUNNY    100  57  23 NW6       29.90F
$$

AZZ027-028-242100-
SOUTHWEST MARICOPA COUNTY AND PINAL COUNTY

CITY           SKY/WX    TMP DP  RH WIND       PRES   REMARKS
CASA GRANDE    SUNNY    100  59  25 NW5       29.93F HX 100
GILA BEND      FAIR     105  55  18 VRB5      29.85F HX 104
$$

AZZ503-504-507>509-242100-
SOUTHEAST ARIZONA

CITY           SKY/WX    TMP DP  RH WIND       PRES   REMARKS
TUCSON         SUNNY     98  57  25 NW12G17   30.01F
DAVIS-MONTHAN  MOSUNNY   97  58  27 NW18      29.99F
NOGALES        SUNNY     92  57  30 NW8       30.08F
SIERRA VISTA   SUNNY     93  57  29 N13       30.14F
DOUGLAS        SUNNY     93  60  33 NW9       30.07F
SAFFORD        SUNNY    100  55  22 W22G30    29.95F
$$

AZZ020-021-025-026-031-242100-
SOUTHWEST ARIZONA

CITY           SKY/WX    TMP DP  RH WIND       PRES   REMARKS
YUMA           MOSUNNY  105  62  24 S16       29.81F HX 107
$$

CAZ031-033-041-043-047-048-061-242100-
SOUTHERN CALIFORNIA

CITY           SKY/WX    TMP DP  RH WIND       PRES   REMARKS
DOWNTOWN L.A.  SUNNY     87  63  44 CALM      29.91F
L.A. AIRPORT   MOSUNNY   83  65  54 W10       29.92F
SAN DIEGO      PTSUNNY   72  64  76 SW8       29.94F
BURBANK        SUNNY     89  59  36 S10       29.93F
ONTARIO        MOSUNNY   94  52  24 W12       29.92F
RIVERSIDE      SUNNY     94  55  26 W8        29.91F
PALM SPRINGS   SUNNY     97  68  38 VRB3      29.86F HX 102
EL CENTRO NAS  SUNNY    103  64  28 VRB3      29.79F HX 106
IMPERIAL       MOSUNNY  104  69  32 NW5       29.77F HX 111
BLYTHE         MOSUNNY  103  65  29 S14G21    29.83F HX 106
NEEDLES        SUNNY    107  60  21 S14G25    29.85F HX 108
$$

NVZ020-UTZ003-242100-
SOUTHERN NEVADA-UTAH

CITY           SKY/WX    TMP DP  RH WIND       PRES   REMARKS
LAS VEGAS      MOSUNNY  109  29   6 SW12G20   29.83F HX 101
SALT LAKE CITY SUNNY     91  33  12 NW9       30.08F
$$

NMZ009-TXZ055-242100-
NEW MEXICO-WEST TEXAS

CITY           SKY/WX    TMP DP  RH WIND       PRES   REMARKS
ALBUQUERQUE    CLOUDY    96  43  16 VRB5      30.10F THUNDER
EL PASO        MOSUNNY  101  45  15 VRB3      29.98F
$$


........................KEY........................
SKY/WX - SKY CONDITION/WEATHER
TMP    - TEMPERATURE IN FAHRENHEIT
DP     - DEW POINT IN FAHRENHEIT
RH     - RELATIVE HUMIDITY IN PERCENT
WIND   - DIRECTION AND SPEED IN MILES PER HOUR (MPH)
VRB    - VARIABLE WIND DIRECTION
PRES   - MEAN SEA LEVEL PRESSURE IN INCHES OF MERCURY
         F - FALLING PRESSURE   R - RISING PRESSURE
         S - STEADY PRESSURE
VSB    - VISIBILITY IN MILES
HX     - HEAT INDEX IN FAHRENHEIT
WCI    - WIND CHILL INDEX IN FAHRENHEIT
TC     - TEMPERATURE IN CELSIUS WHICH IS ALSO KNOWN AS
         TEMPERATURE IN CENTIGRADE
AFB    - AIR FORCE BASE
         LUKE AFB IS LUKE AIR FORCE BASE
         DAVIS-MONTHAN IS DAVIS-MONTHAN AIR FORCE BASE
NAS    - NAVAL AIR STATION
         EL CENTRO NAS IS EL CENTRO NAVAL AIR STATION
N/A    - NOT AVAILABLE





USA.gov is the U.S. government's official web portal to all federal, state and local government web resources and services.